Location: Northam
(31.6525°S, 116.6655°E)
Time: 05:18:25
(UTC+08:00)

S-56A Canister/Altair - Visible Passes

Search period start: 14 June 2021 00:00
Search period end: 24 June 2021 00:00
Orbit: 632 x 2500 km, 38.9° (Epoch: 12 June)

Date Brightness Start Highest point End Pass type
(mag) Time Alt. Az. Time Alt. Az. Time Alt. Az.
14 Jun 9.9 18:29:50 10° WNW 18:45:07 75° SSW 18:53:28 26° ESE visible
14 Jun 9.7 20:38:51 10° WSW 20:50:53 57° SSW 20:50:53 57° SSW visible
14 Jun 11.4 22:47:21 10° WSW 22:48:18 13° WSW 22:48:18 13° WSW visible
15 Jun 10.0 17:56:04 10° WNW 18:11:28 79° SSW 18:22:31 16° ESE visible
15 Jun 9.5 20:04:51 10° W 20:19:08 61° S 20:19:56 60° SSE visible
15 Jun 11.0 22:13:31 10° WSW 22:17:22 22° WSW 22:17:22 22° WSW visible
16 Jun 10.1 17:22:25 10° WNW 17:37:47 83° SSW 17:51:05 10° ESE visible
16 Jun 9.6 19:30:51 10° W 19:45:34 63° S 19:49:00 49° SE visible
16 Jun 10.5 21:39:39 10° WSW 21:46:25 34° WSW 21:46:25 34° WSW visible
17 Jun 9.9 18:56:55 10° W 19:11:57 64° S 19:18:04 36° ESE visible
17 Jun 10.0 21:05:45 10° WSW 21:15:30 49° SW 21:15:30 49° SW visible
18 Jun 10.0 18:23:02 10° W 18:38:16 66° S 18:47:10 24° ESE visible
18 Jun 9.6 20:31:50 10° WSW 20:44:36 65° SSW 20:44:36 65° SSW visible
18 Jun 11.3 22:39:57 10° WSW 22:42:01 16° WSW 22:42:01 16° WSW visible
19 Jun 10.1 17:49:14 10° W 18:04:30 67° S 18:16:17 14° ESE visible
19 Jun 9.4 19:57:55 10° WSW 20:12:37 68° S 20:13:43 65° SE visible
19 Jun 10.9 22:06:06 10° WSW 22:11:09 26° WSW 22:11:09 26° WSW visible
20 Jun 10.2 17:15:32 10° W 17:30:43 70° SSW 17:44:22 10° ESE visible
20 Jun 9.6 19:24:01 10° WSW 19:39:02 66° S 19:42:53 49° ESE visible
20 Jun 10.3 21:32:14 10° WSW 21:40:19 40° WSW 21:40:19 40° WSW visible
21 Jun 9.9 18:50:09 10° WSW 19:05:22 66° S 19:12:05 34° ESE visible
21 Jun 9.8 20:58:21 10° WSW 21:09:32 60° WSW 21:09:32 60° WSW visible
22 Jun 10.0 18:16:21 10° WSW 18:31:37 65° S 18:41:22 21° E visible
22 Jun 9.4 20:24:30 10° WSW 20:38:49 85° SW 20:38:49 85° SW visible
22 Jun 11.2 22:32:54 10° WSW 22:36:15 19° W 22:36:15 19° W visible
23 Jun 10.1 17:42:38 10° W 17:57:49 65° S 18:10:43 11° E visible
23 Jun 9.4 19:50:40 10° WSW 20:05:47 84° SSE 20:08:10 66° E visible
23 Jun 10.7 21:58:52 10° WSW 22:05:37 30° W 22:05:37 30° W visible
